EW8974 Weather Reports


Display with metric or nautical units.
time (UTC)temp
F
wind
direction
speed
MPH
gust
MPH
rain 1hr
in
rain 24hr
in
rain mn
in
humidity
%
barometer
mb
20260503230048 80 259 4.0 12.0 0.00 0.00 0.00 32 1010.5
20260503225548 80 259 5.0 11.0 0.00 0.00 0.00 31 1010.5
20260503225049 80 146 5.0 12.0 0.00 0.00 0.00 30 1010.4
20260503224550 80 242 4.0 12.0 0.00 0.00 0.00 34 1010.5
20260503224047 80 189 2.0 11.0 0.00 0.00 0.00 35 1010.3
20260503223547 79 205 4.0 11.0 0.00 0.00 0.00 35 1010.6
20260503223047 80 193 4.0 8.0 0.00 0.00 0.00 34 1010.6
20260503222545 80 226 4.0 10.0 0.00 0.00 0.00 33 1010.5
20260503222045 80 191 4.0 12.0 0.00 0.00 0.00 33 1010.5
20260503221545 80 184 6.0 12.0 0.00 0.00 0.00 34 1010.7
20260503221047 81 219 3.0 11.0 0.00 0.00 0.00 34 1010.6
20260503220543 81 239 4.0 11.0 0.00 0.00 0.00 34 1010.7
20260503220043 81 195 4.0 10.0 0.00 0.00 0.00 35 1010.7
20260503215544 81 240 3.0 11.0 0.00 0.00 0.00 33 1010.8
20260503215041 81 169 4.0 13.0 0.00 0.00 0.00 34 1010.9
20260503214551 80 214 6.0 13.0 0.00 0.00 0.00 34 1011.0
20260503214044 80 235 4.0 10.0 0.00 0.00 0.00 35 1010.9
20260503213540 81 188 5.0 10.0 0.00 0.00 0.00 34 1011.0
20260503213102 81 224 5.0 9.0 0.00 0.00 0.00 35 1011.2
20260503212540 81 155 4.0 10.0 0.00 0.00 0.00 33 1011.2
20260503212039 82 281 3.0 10.0 0.00 0.00 0.00 33 1011.3
20260503211557 82 181 2.0 8.0 0.00 0.00 0.00 36 1011.2
20260503211042 81 246 3.0 10.0 0.00 0.00 0.00 33 1011.4
20260503210538 81 163 5.0 11.0 0.00 0.00 0.00 34 1011.5
20260503210037 82 236 5.0 11.0 0.00 0.00 0.00 35 1011.4
20260503205538 81 167 3.0 9.0 0.00 0.00 0.00 34 1011.7
20260503205039 81 263 2.0 7.0 0.00 0.00 0.00 34 1011.8
20260503204551 81 115 2.0 8.0 0.00 0.00 0.00 34 1012.0
20260503204035 82 241 2.0 9.0 0.00 0.00 0.00 32 1012.1
20260503203533 82 222 3.0 9.0 0.00 0.00 0.00 36 1012.3
20260503203036 82 247 2.0 9.0 0.00 0.00 0.00 35 1012.2
20260503202532 82 281 3.0 9.0 0.00 0.00 0.00 35 1012.2
20260503202032 82 186 2.0 8.0 0.00 0.00 0.00 35 1012.3
20260503201531 82 194 3.0 9.0 0.00 0.00 0.00 32 1012.4
20260503201029 81 240 2.0 9.0 0.00 0.00 0.00 36 1012.5
20260503200529 81 117 2.0 9.0 0.00 0.00 0.00 34 1012.5
20260503200029 81 224 1.0 8.0 0.00 0.00 0.00 34 1012.6
20260503195528 81 238 4.0 12.0 0.00 0.00 0.00 38 1012.6
20260503195026 81 233 5.0 12.0 0.00 0.00 0.00 36 1012.8
20260503194528 81 225 3.0 12.0 0.00 0.00 0.00 36 1012.8
20260503194026 81 262 3.0 12.0 0.00 0.00 0.00 36 1012.9
20260503193525 80 210 2.0 9.0 0.00 0.00 0.00 39 1012.8
20260503193025 80 176 4.0 10.0 0.00 0.00 0.00 39 1013.2
20260503192523 80 207 3.0 11.0 0.00 0.00 0.00 41 1013.2
20260503192023 80 253 4.0 11.0 0.00 0.00 0.00 39 1013.4
20260503191522 80 231 3.0 9.0 0.00 0.00 0.00 39 1013.4
20260503191022 80 240 4.0 9.0 0.00 0.00 0.00 39 1013.6
20260503190520 80 335 1.0 7.0 0.00 0.00 0.00 40 1013.5
20260503190024 79 213 2.0 10.0 0.00 0.00 0.00 40 1013.6
20260503185521 80 235 4.0 10.0 0.00 0.00 0.00 40 1013.7
20260503185018 80 221 3.0 8.0 0.00 0.00 0.00 41 1013.7
20260503184518 80 316 2.0 6.0 0.00 0.00 0.00 40 1013.9
20260503184020 79 309 2.0 6.0 0.00 0.00 0.00 42 1014.0
20260503183517 79 228 3.0 8.0 0.00 0.00 0.00 39 1014.0
20260503183016 79 314 3.0 11.0 0.00 0.00 0.00 36 1014.1
20260503182516 79 276 3.0 12.0 0.00 0.00 0.00 37 1014.2
20260503182016 79 11 3.0 12.0 0.00 0.00 0.00 35 1014.3
20260503181515 79 108 5.0 11.0 0.00 0.00 0.00 36 1014.3
20260503181015 79 240 3.0 8.0 0.00 0.00 0.00 35 1014.4
20260503180514 79 272 2.0 10.0 0.00 0.00 0.00 42 1014.5
20260503180025 79 200 4.0 10.0 0.00 0.00 0.00 39 1014.5
20260503175512 79 297 2.0 8.0 0.00 0.00 0.00 42 1014.7
20260503175013 78 297 3.0 9.0 0.00 0.00 0.00 43 1014.8
20260503174519 78 237 3.0 9.0 0.00 0.00 0.00 43 1014.9
20260503174009 78 219 3.0 7.0 0.00 0.00 0.00 45 1015.0
20260503173509 77 334 3.0 8.0 0.00 0.00 0.00 45 1015.1
20260503173012 77 268 3.0 8.0 0.00 0.00 0.00 45 1015.1
20260503172508 78 271 3.0 10.0 0.00 0.00 0.00 46 1015.1
20260503172007 77 214 2.0 10.0 0.00 0.00 0.00 48 1015.3
20260503171515 77 273 2.0 9.0 0.00 0.00 0.00 48 1015.4
20260503171104 76 267 2.0 11.0 0.00 0.00 0.00 51 1015.4
20260503170507 76 300 5.0 11.0 0.00 0.00 0.00 46 1015.5
20260503150540 69 332 2.0 7.0 0.00 0.00 0.00 58 1015.7
20260503131016 62 300 2.0 7.0 0.00 0.00 0.00 64 1015.3
20260503130518 61 298 2.0 6.0 0.00 0.00 0.00 66 1015.4
20260503110552 57 278 0.0 2.0 0.00 0.00 0.00 72 1014.4
20260503081555 57 293 0.0 3.0 0.00 0.00 0.00 73 1014.0
20260503081043 57 226 0.0 3.0 0.00 0.00 0.00 74 1014.1
20260503080546 56 240 0.0 3.0 0.00 0.00 0.00 75 1014.2
20260503072540 56 229 0.0 2.0 0.00 0.00 0.00 71 1014.4
20260503072040 56 231 0.0 1.0 0.00 0.00 0.00 71 1014.4
20260503071601 56 231 0.0 2.0 0.00 0.00 0.00 72 1014.5
20260503071039 56 181 0.0 2.0 0.00 0.00 0.00 72 1014.5
20260503070539 55 176 0.0 1.0 0.00 0.00 0.00 73 1014.5
20260503055036 56 229 0.0 2.0 0.00 0.00 0.00 74 1014.4
20260503054550 55 229 0.0 2.0 0.00 0.00 0.00 75 1014.5
20260503054033 55 229 0.0 1.0 0.00 0.00 0.00 74 1014.5
20260503053531 55 229 0.0 0.0 0.00 0.00 0.00 74 1014.5
20260503053030 56 229 0.0 1.0 0.00 0.00 0.00 74 1014.4
20260503052530 56 229 0.0 1.0 0.00 0.00 0.00 73 1014.4
20260503052029 56 229 0.0 1.0 0.00 0.00 0.00 72 1014.3
20260503051536 57 229 0.0 1.0 0.00 0.00 0.00 71 1014.3
20260503051027 57 229 0.0 1.0 0.00 0.00 0.00 72 1014.3
20260503050525 57 229 0.0 1.0 0.00 0.00 0.00 71 1014.2
20260503050024 57 229 0.0 1.0 0.00 0.00 0.00 72 1014.2
20260503045526 57 229 0.0 1.0 0.00 0.00 0.00 71 1014.3
20260503045030 57 229 0.0 2.0 0.00 0.00 0.00 71 1014.2
20260503044524 58 229 0.0 2.0 0.00 0.00 0.00 71 1014.3
20260503044024 58 240 0.0 1.0 0.00 0.00 0.00 70 1014.2
20260503043526 58 240 0.0 2.0 0.00 0.00 0.00 69 1014.2
20260503043024 59 240 0.0 2.0 0.00 0.00 0.00 69 1014.3
20260503042524 59 193 0.0 1.0 0.00 0.00 0.00 70 1014.3
20260503042024 59 205 0.0 2.0 0.00 0.00 0.00 70 1014.4
20260503041529 58 153 0.0 2.0 0.00 0.00 0.00 70 1014.3
20260503041024 58 167 0.0 1.0 0.00 0.00 0.00 71 1014.3
20260503040527 58 169 0.0 1.0 0.00 0.00 0.00 71 1014.3
20260503040023 58 169 0.0 3.0 0.00 0.00 0.00 71 1014.4
20260503035522 58 218 0.0 3.0 0.00 0.00 0.00 71 1014.4
20260503035022 57 155 0.0 0.0 0.00 0.00 0.00 72 1014.4
20260503034522 57 155 0.0 0.0 0.00 0.00 0.00 73 1014.4
20260503034021 56 155 0.0 0.0 0.00 0.00 0.00 74 1014.4
20260503033522 56 155 0.0 1.0 0.00 0.00 0.00 75 1014.4
20260503033023 56 155 0.0 1.0 0.00 0.00 0.00 76 1014.3
20260503032522 56 292 0.0 0.0 0.00 0.00 0.00 77 1014.4
20260503032022 56 292 0.0 0.0 0.00 0.00 0.00 77 1014.4
20260503031525 56 292 0.0 1.0 0.00 0.00 0.00 76 1014.3
20260503031021 56 292 0.0 1.0 0.00 0.00 0.00 76 1014.2
20260503030520 56 292 0.0 0.0 0.00 0.00 0.00 75 1014.1
20260503030027 56 292 0.0 0.0 0.00 0.00 0.00 74 1014.1
20260503025521 57 292 0.0 0.0 0.00 0.00 0.00 74 1014.1
20260503025021 57 292 0.0 0.0 0.00 0.00 0.00 74 1014.0
20260503024520 57 292 0.0 0.0 0.00 0.00 0.00 74 1014.0
20260503024020 57 292 0.0 0.0 0.00 0.00 0.00 73 1013.9
20260503023520 57 292 0.0 0.0 0.00 0.00 0.00 73 1013.8
20260503023020 57 292 0.0 0.0 0.00 0.00 0.00 74 1013.7
20260503022519 58 292 0.0 0.0 0.00 0.00 0.00 73 1013.7
20260503022019 58 292 0.0 0.0 0.00 0.00 0.00 73 1013.7
20260503021519 58 292 0.0 0.0 0.00 0.00 0.00 71 1013.7
20260503021019 59 292 0.0 0.0 0.00 0.00 0.00 70 1013.6
20260503020522 59 292 0.0 0.0 0.00 0.00 0.00 71 1013.5
20260503020019 60 292 0.0 0.0 0.00 0.00 0.00 72 1013.6
20260503015519 60 292 0.0 0.0 0.00 0.00 0.00 70 1013.4
20260503015018 61 292 0.0 0.0 0.00 0.00 0.00 68 1013.5
20260503014518 62 292 0.0 0.0 0.00 0.00 0.00 68 1013.4
20260503014018 63 292 0.0 0.0 0.00 0.00 0.00 66 1013.4
20260503013518 63 292 0.0 0.0 0.00 0.00 0.00 64 1013.4
20260503013029 64 292 0.0 0.0 0.00 0.00 0.00 61 1013.4
20260503012521 66 292 0.0 0.0 0.00 0.00 0.00 56 1013.4
20260503012018 67 292 0.0 0.0 0.00 0.00 0.00 54 1013.2
20260503011517 68 292 0.0 0.0 0.00 0.00 0.00 53 1013.3
20260503011016 70 292 0.0 0.0 0.00 0.00 0.00 51 1013.2
20260503010517 72 292 0.0 1.0 0.00 0.00 0.00 47 1013.1
20260503010017 73 292 0.0 1.0 0.00 0.00 0.00 42 1013.1
20260503005517 75 292 0.0 0.0 0.00 0.00 0.00 39 1013.1
20260503005017 76 292 0.0 2.0 0.00 0.00 0.00 38 1013.1
20260503004516 76 292 0.0 2.0 0.00 0.00 0.00 36 1013.1
20260503004016 77 214 0.0 2.0 0.00 0.00 0.00 36 1013.1
20260503003515 78 313 0.0 2.0 0.00 0.00 0.00 32 1013.0
20260503003022 80 295 0.0 1.0 0.00 0.00 0.00 30 1012.9
20260503002515 82 86 0.0 0.0 0.00 0.00 0.00 31 1013.0
20260503002016 82 86 0.0 0.0 0.00 0.00 0.00 30 1013.0
20260503001513 81 86 0.0 0.0 0.00 0.00 0.00 35 1013.0
20260503001012 80 86 0.0 1.0 0.00 0.00 0.00 35 1012.9
20260503000516 80 86 0.0 1.0 0.00 0.00 0.00 33 1013.0
20260503000012 79 78 0.0 2.0 0.00 0.00 0.00 32 1013.0
20260502235512 79 242 0.0 1.0 0.00 0.00 0.00 33 1013.1
20260502235012 79 268 0.0 3.0 0.00 0.00 0.00 32 1013.1
20260502234518 79 14 0.0 3.0 0.00 0.00 0.00 30 1013.1
20260502234012 80 81 0.0 3.0 0.00 0.00 0.00 32 1013.0
20260502233512 80 33 0.0 3.0 0.00 0.00 0.00 31 1013.0
20260502233012 81 264 0.0 2.0 0.00 0.00 0.00 32 1013.2
20260502232511 80 115 0.0 1.0 0.00 0.00 0.00 31 1013.2
20260502232011 79 295 0.0 3.0 0.00 0.00 0.00 29 1013.1
20260502231510 79 314 0.0 3.0 0.00 0.00 0.00 28 1013.1
20260502231010 80 56 0.0 3.0 0.00 0.00 0.00 32 1013.2
20260502230510 79 58 0.0 3.0 0.00 0.00 0.00 30 1013.3